Wind_Speed
45 44 43 43 41 39 39 37 36 35 33 32 31 29 28 25 24 26 24 22 23 24 23 23 23 21 21 19 17 14 13 13 12 9 9 8 11 12 10 10 9 8 7 6 8
47 47 45 43 43 42 41 38 39 39 35 36 34 29 28 28 27 25 26 25 23 24 25 25 25 23 22 21 19 18 13 13 14 13 11 9 10 11 12 11 12 11 10 9 9
50 49 48 46 45 44 44 42 42 41 38 37 35 32 32 32 31 29 27 27 26 26 26 25 25 25 24 24 22 21 17 16 17 16 15 12 10 9 13 13 15 13 10 10 10
53 51 49 48 46 45 44 44 43 42 43 40 41 36 34 33 32 31 30 28 27 27 27 27 27 27 26 25 24 23 21 19 20 19 18 16 15 13 12 13 14 15 14 13 14
53 51 51 49 48 47 46 45 44 43 42 42 41 38 36 35 34 35 32 31 29 28 28 28 27 27 27 27 27 26 24 21 20 20 19 18 18 17 15 14 15 15 17 18 16
57 54 51 52 50 48 48 46 45 44 42 40 43 41 41 38 38 40 34 33 32 30 29 30 29 28 28 27 27 26 24 22 21 22 20 18 19 20 18 17 17 17 17 18 19
60 58 56 54 51 50 49 49 47 45 44 43 41 42 42 40 39 38 36 34 33 33 31 30 30 29 29 28 27 26 24 23 23 23 20 19 21 22 21 20 20 18 16 18 21
62 62 60 56 53 50 50 50 50 46 46 45 45 43 39 39 40 40 38 37 36 34 32 31 31 32 32 29 28 26 25 27 28 24 22 19 22 23 23 22 21 22 21 22 22
66 65 61 61 59 54 54 53 51 49 47 48 47 46 45 45 44 40 40 39 36 36 34 32 33 34 33 33 29 27 26 32 27 25 24 22 23 24 25 24 24 23 23 24 25
68 68 65 64 62 60 58 55 51 51 52 51 49 49 47 49 45 42 42 40 38 37 35 34 33 34 39 35 28 27 33 32 30 29 26 27 27 27 27 25 25 25 25 26 27
72 68 70 66 63 63 61 59 58 55 53 56 52 51 48 49 48 45 44 41 39 39 39 35 33 39 41 35 31 34 34 35 37 32 28 29 31 29 27 27 27 28 29 28 30
78 75 72 70 66 62 63 62 65 61 59 58 54 50 47 47 47 46 44 42 44 47 43 44 38 45 39 39 37 37 36 37 37 34 30 30 30 31 28 31 29 30 31 31 33
81 79 79 73 72 68 64 65 67 68 64 60 56 53 52 54 54 53 54 52 51 49 52 48 46 49 47 44 41 42 38 41 37 34 32 33 30 33 32 35 32 34 35 35 36
88 83 82 82 76 71 69 71 71 73 70 57 56 52 52 57 53 53 55 53 55 54 55 49 51 54 52 49 51 45 43 44 41 38 36 33 28 32 38 40 38 39 39 39 39
92 86 83 78 75 75 81 85 81 79 79 63 57 56 55 58 56 54 58 59 54 56 55 50 51 55 57 57 55 53 50 51 48 43 40 36 35 36 43 46 48 45 45 45 44
96 92 87 83 74 72 79 83 84 88 71 67 62 60 61 61 55 57 61 60 60 57 58 56 54 58 57 58 59 57 57 58 55 49 39 45 45 34 43 54 52 53 52 50 49
102 98 94 87 78 82 85 89 90 84 64 62 64 63 66 64 63 61 62 63 64 63 60 63 58 54 56 56 55 55 59 60 56 54 49 51 51 43 48 54 56 56 55 54 54
106 105 98 92 91 85 90 96 99 67 69 68 73 71 66 66 66 66 66 67 65 63 62 60 57 55 53 57 56 53 56 58 59 58 55 53 50 48 55 54 55 56 56 57 59
116 111 104 101 93 93 98 103 92 71 74 76 78 77 72 70 68 71 71 70 68 66 69 66 62 60 58 56 58 52 50 60 59 57 56 53 53 51 53 57 57 57 60 63 65
120 114 112 106 102 97 105 106 86 84 86 81 78 78 76 75 72 72 72 66 68 73 75 71 68 65 60 61 59 54 54 57 58 56 57 52 50 52 56 58 59 60 64 68 70
121 120 110 109 110 109 111 102 90 93 92 90 77 80 80 78 77 72 71 67 66 68 77 76 74 70 67 63 65 64 60 63 65 60 59 56 53 57 58 59 61 65 68 72 74
125 124 113 113 115 118 113 96 101 100 95 92 88 81 80 85 78 77 73 71 72 69 70 72 78 76 73 70 71 68 67 68 67 66 68 67 58 62 62 64 65 69 72 74 75
123 120 111 104 111 113 113 108 105 105 101 93 92 89 88 86 87 81 76 74 75 76 77 75 77 79 78 73 71 72 75 73 74 74 66 74 60 65 66 69 72 75 76 78 80
126 120 119 117 116 112 116 114 112 106 106 103 97 98 96 92 89 87 82 81 77 80 84 86 88 84 80 82 81 78 77 78 79 77 69 71 69 73 73 73 75 80 83 84 83
133 126 121 119 115 113 112 111 114 113 111 111 110 102 98 94 92 90 92 92 88 85 86 86 87 87 83 82 82 80 79 81 82 74 84 69 79 81 81 81 83 84 86 89 91
132 125 126 120 120 123 121 118 111 109 104 104 104 98 102 98 93 92 95 93 92 87 89 90 88 91 86 86 89 89 84 83 81 79 82 79 82 89 87 88 89 88 90 91 94
130 125 124 120 118 124 120 116 112 115 113 107 95 95 95 93 96 95 97 99 96 94 92 95 95 95 90 92 95 99 77 87 83 81 85 87 80 89 92 89 90 93 95 96 95
Wind_Direction
236 235 238 240 242 244 248 247 248 249 248 249 251 256 256 254 258 262 259 259 262 264 265 269 271 273 276 273 276 276 279 280 278 281 279 275 271 264 253 254 248 239 227 236 261
236 238 237 239 241 243 245 246 252 253 251 251 253 253 255 256 259 264 263 261 261 264 266 269 272 272 271 273 275 276 272 273 271 276 276 275 270 274 266 259 255 249 245 243 241
235 237 238 240 241 243 246 247 247 252 254 255 255 254 249 255 261 265 263 264 267 264 263 265 268 270 268 268 271 269 266 260 258 263 263 267 266 260 263 263 262 264 264 263 256
236 237 238 238 239 240 245 248 248 250 254 250 251 253 254 255 258 261 263 264 265 263 261 262 266 268 269 268 266 266 262 256 254 252 254 251 260 261 259 264 263 263 268 270 272
235 236 239 240 240 241 242 244 246 250 251 253 253 254 253 261 265 263 264 263 264 261 259 259 263 270 269 266 265 262 264 261 255 250 247 245 253 258 259 263 270 268 267 269 271
233 237 240 239 242 242 243 245 245 247 249 250 251 251 253 252 256 261 265 264 263 263 260 257 262 265 267 264 264 262 265 265 261 254 246 245 246 250 252 261 266 266 265 267 271
235 232 238 240 238 242 242 245 247 247 249 249 250 250 253 255 256 260 263 266 264 262 264 260 261 263 263 262 263 263 260 260 261 257 252 244 244 250 250 258 266 269 268 268 270
235 235 234 238 242 240 242 245 249 249 247 248 249 253 255 255 256 260 263 266 264 260 261 262 260 258 258 259 260 258 258 256 255 254 257 244 247 251 256 260 266 270 272 277 282
232 235 234 234 236 240 241 243 245 247 246 246 247 249 252 258 258 258 260 264 264 260 260 263 262 259 258 256 257 256 257 251 250 252 253 253 253 258 261 263 266 270 272 276 282
230 231 233 236 238 236 239 241 243 244 245 244 246 245 247 250 256 258 258 261 263 261 258 260 262 263 260 257 261 255 252 252 246 253 253 250 249 256 257 259 262 268 272 277 284
226 228 230 232 236 237 239 241 244 245 245 246 242 244 246 249 252 253 254 257 261 260 258 261 263 263 259 262 260 257 257 257 253 253 250 250 251 251 258 261 263 269 275 282 287
229 228 229 229 233 236 239 240 242 243 242 244 243 245 247 249 251 254 256 257 259 259 257 258 261 263 265 264 261 257 257 262 261 259 252 247 250 250 256 260 265 270 277 283 288
228 228 229 228 231 233 236 239 241 242 240 243 242 241 248 248 249 255 260 259 257 256 256 251 256 265 264 263 265 262 259 262 264 259 254 252 254 259 259 265 266 271 276 280 287
229 227 229 230 230 231 234 237 240 241 239 238 245 243 247 249 251 254 254 257 255 257 257 255 255 257 262 265 265 264 262 265 267 262 260 257 252 267 271 274 274 277 277 278 280
230 231 232 231 236 240 239 238 236 240 236 231 240 244 245 249 246 251 253 253 255 256 257 257 256 257 259 259 263 264 266 268 269 268 265 272 265 269 273 277 279 280 280 279 280
232 234 232 232 230 235 239 244 246 241 238 237 236 241 244 245 247 248 254 256 256 256 257 259 256 259 261 264 265 265 266 267 270 270 271 272 273 271 273 273 278 279 280 281 282
234 234 233 232 234 233 239 243 245 242 240 240 236 241 246 248 245 246 247 250 254 256 259 259 263 263 265 265 267 267 266 266 268 271 270 268 271 276 275 271 273 275 277 278 281
237 233 234 236 235 235 240 243 244 239 242 240 238 235 237 244 247 247 247 250 252 254 256 259 262 262 264 263 262 267 267 268 264 265 266 270 275 274 272 269 271 275 278 278 279
234 236 235 237 236 237 240 244 243 242 242 241 237 237 236 238 245 249 250 250 252 255 255 252 255 257 259 262 264 263 269 263 264 264 264 266 267 267 268 269 272 275 276 278 278
234 236 236 238 237 240 242 246 240 241 242 242 240 239 237 239 242 247 250 256 261 261 260 261 260 259 261 261 264 264 261 264 266 265 265 264 266 269 268 270 273 274 274 275 276
234 235 234 238 239 241 243 243 240 240 242 243 241 243 241 240 243 247 249 251 257 258 260 262 263 261 260 262 261 263 265 267 267 269 269 268 268 266 271 272 273 274 274 274 276
233 235 235 238 241 243 243 241 242 242 243 243 244 242 245 243 241 243 248 248 250 256 258 262 263 263 262 259 263 264 264 266 265 263 263 264 266 267 269 270 270 271 272 273 274
233 232 230 232 237 241 244 241 242 241 243 245 246 247 248 247 244 247 247 251 253 251 254 256 258 257 260 262 263 261 262 263 263 264 267 270 274 272 272 273 273 273 274 276 275
233 233 231 233 236 240 243 244 243 244 245 247 246 247 247 246 248 247 249 249 254 255 254 255 256 259 260 259 259 261 261 263 265 267 269 269 269 271 272 273 274 273 273 274 275
234 234 234 234 235 237 240 244 246 248 248 248 250 252 249 248 248 250 250 248 252 255 257 258 257 257 257 258 259 258 261 264 266 267 268 270 271 274 274 276 275 276 277 276 276
232 235 236 236 235 234 237 242 243 247 250 252 252 253 250 251 254 253 254 255 256 255 258 258 259 259 257 260 262 263 261 264 267 270 270 271 271 276 275 276 280 281 280 282 282
229 232 234 234 234 235 235 239 240 246 247 249 247 247 248 251 251 252 253 257 257 257 260 263 260 259 257 259 261 262 270 265 266 269 274 274 275 274 276 277 279 282 283 283 283
Height
10751 10755 10759 10763 10767 10770 10773 10775 10778 10780 10781 10782 10783 10785 10786 10787 10788 10789 10790 10790 10791 10792 10792 10793 10793 10793 10793 10792 10792 10792 10793 10792 10791 10791 10792 10792 10790 10790 10790 10791 10792 10793 10793 10793 10793
10743 10746 10750 10754 10758 10762 10765 10768 10771 10773 10775 10776 10777 10779 10781 10782 10782 10784 10785 10785 10786 10787 10787 10788 10788 10788 10788 10787 10787 10788 10790 10789 10788 10788 10788 10788 10787 10786 10786 10787 10788 10788 10790 10790 10790
10733 10737 10741 10745 10749 10753 10757 10760 10763 10765 10768 10770 10771 10773 10775 10776 10778 10779 10779 10780 10780 10781 10782 10782 10782 10782 10782 10782 10782 10784 10786 10785 10785 10785 10785 10785 10784 10783 10782 10783 10783 10784 10786 10786 10787
10724 10728 10732 10736 10740 10744 10747 10751 10754 10757 10759 10762 10764 10766 10769 10770 10772 10773 10774 10774 10775 10776 10776 10777 10777 10777 10777 10776 10777 10779 10780 10780 10780 10780 10781 10781 10780 10779 10779 10779 10779 10780 10781 10782 10782
10714 10719 10723 10727 10731 10735 10738 10741 10744 10748 10751 10753 10756 10758 10761 10764 10766 10766 10767 10768 10769 10770 10771 10771 10771 10771 10770 10771 10771 10772 10773 10775 10775 10775 10776 10776 10775 10774 10775 10775 10775 10775 10775 10775 10776
10705 10709 10713 10718 10721 10726 10729 10732 10735 10738 10741 10744 10747 10750 10753 10757 10759 10758 10760 10761 10762 10764 10764 10765 10765 10764 10764 10765 10765 10766 10767 10768 10769 10769 10770 10771 10770 10769 10770 10770 10770 10770 10771 10770 10770
10692 10698 10704 10708 10712 10716 10719 10723 10727 10730 10732 10735 10738 10742 10745 10749 10750 10751 10753 10754 10755 10756 10757 10757 10758 10758 10757 10758 10759 10760 10761 10762 10762 10762 10764 10765 10764 10764 10765 10765 10765 10765 10765 10765 10765
10680 10685 10691 10697 10701 10705 10709 10713 10718 10721 10724 10726 10729 10733 10737 10739 10741 10742 10745 10746 10747 10748 10748 10749 10750 10751 10751 10751 10752 10753 10755 10755 10754 10756 10757 10760 10758 10758 10759 10759 10759 10759 10759 10759 10758
10665 10672 10678 10684 10689 10694 10698 10703 10707 10711 10715 10718 10721 10725 10729 10729 10732 10735 10737 10739 10740 10740 10741 10741 10742 10743 10743 10744 10746 10747 10748 10745 10748 10750 10751 10752 10752 10752 10752 10752 10753 10753 10753 10753 10752
10650 10656 10663 10670 10677 10682 10687 10691 10696 10700 10704 10707 10711 10714 10721 10718 10723 10727 10729 10730 10732 10733 10734 10733 10735 10736 10733 10736 10741 10740 10738 10739 10740 10742 10745 10745 10745 10745 10746 10746 10747 10747 10747 10746 10745
10636 10643 10650 10657 10663 10668 10674 10679 10684 10688 10692 10693 10700 10706 10710 10711 10713 10716 10719 10722 10723 10724 10724 10727 10730 10725 10725 10730 10732 10730 10731 10731 10731 10736 10738 10737 10737 10738 10739 10739 10740 10740 10739 10738 10738
10620 10628 10635 10643 10650 10656 10663 10668 10667 10672 10676 10682 10690 10696 10701 10703 10705 10706 10708 10712 10713 10713 10715 10717 10722 10714 10720 10721 10722 10722 10722 10721 10723 10726 10730 10729 10729 10731 10732 10731 10732 10732 10731 10731 10731
10601 10611 10619 10627 10635 10645 10648 10651 10651 10654 10663 10670 10679 10687 10689 10691 10695 10697 10698 10700 10700 10701 10700 10706 10712 10707 10709 10710 10711 10712 10714 10711 10715 10718 10720 10721 10724 10722 10723 10721 10723 10723 10723 10723 10723
10589 10593 10601 10609 10622 10627 10636 10627 10633 10636 10647 10667 10667 10679 10682 10680 10687 10688 10683 10685 10687 10689 10690 10698 10701 10695 10698 10701 10698 10703 10704 10703 10705 10708 10709 10714 10719 10715 10710 10709 10711 10711 10712 10713 10712
10572 10580 10587 10598 10608 10615 10617 10611 10616 10617 10628 10653 10663 10666 10667 10666 10673 10676 10671 10672 10676 10675 10678 10687 10687 10686 10687 10685 10688 10692 10693 10693 10694 10697 10700 10704 10705 10707 10700 10698 10697 10699 10699 10699 10700
10553 10561 10569 10583 10597 10602 10597 10595 10599 10596 10630 10646 10653 10652 10649 10652 10658 10661 10656 10660 10660 10664 10667 10670 10676 10674 10675 10675 10676 10681 10680 10680 10681 10685 10695 10690 10688 10703 10694 10683 10686 10685 10686 10686 10687
10533 10542 10552 10563 10582 10581 10577 10574 10573 10590 10632 10635 10638 10638 10636 10638 10641 10642 10644 10645 10647 10651 10656 10653 10662 10665 10664 10664 10665 10665 10666 10667 10672 10673 10679 10676 10676 10690 10683 10675 10674 10673 10674 10674 10675
10512 10519 10533 10547 10555 10563 10558 10552 10546 10613 10606 10617 10614 10616 10621 10622 10625 10626 10628 10631 10636 10638 10638 10643 10647 10649 10653 10651 10652 10656 10652 10653 10654 10658 10662 10664 10671 10675 10664 10664 10661 10661 10661 10660 10660
10490 10500 10511 10522 10535 10541 10535 10521 10559 10599 10586 10588 10590 10601 10607 10607 10608 10609 10612 10618 10623 10624 10622 10627 10632 10636 10639 10639 10639 10647 10645 10633 10639 10644 10647 10654 10655 10658 10654 10651 10649 10649 10646 10644 10643
10467 10476 10493 10505 10514 10515 10505 10509 10558 10562 10559 10561 10577 10585 10591 10593 10593 10594 10600 10612 10612 10611 10604 10612 10619 10624 10627 10628 10627 10629 10628 10624 10626 10630 10630 10639 10643 10643 10639 10638 10638 10636 10633 10629 10626
10443 10452 10481 10489 10489 10484 10480 10512 10539 10537 10536 10542 10562 10564 10575 10578 10581 10584 10590 10599 10598 10596 10589 10594 10602 10611 10613 10617 10611 10612 10616 10613 10612 10617 10616 10622 10629 10628 10628 10626 10623 10620 10618 10613 10610
10419 10429 10461 10467 10458 10460 10467 10515 10506 10513 10518 10530 10538 10549 10555 10556 10567 10568 10577 10582 10578 10580 10578 10579 10581 10592 10596 10598 10597 10603 10601 10598 10597 10599 10598 10602 10620 10613 10613 10609 10606 10603 10601 10597 10595
10393 10412 10433 10438 10433 10441 10456 10474 10480 10489 10504 10515 10523 10530 10532 10537 10546 10555 10561 10564 10563 10566 10565 10564 10563 10570 10576 10585 10586 10584 10579 10580 10579 10579 10595 10586 10611 10593 10592 10592 10590 10587 10584 10582 10581
10368 10386 10407 10411 10419 10424 10434 10446 10456 10471 10477 10491 10503 10501 10509 10516 10530 10538 10545 10545 10547 10547 10544 10543 10545 10555 10564 10560 10563 10566 10566 10564 10562 10569 10583 10579 10582 10575 10573 10573 10571 10567 10565 10566 10564
10341 10366 10381 10389 10402 10408 10412 10425 10435 10444 10457 10468 10472 10484 10495 10496 10508 10523 10519 10523 10526 10526 10523 10525 10529 10533 10542 10541 10539 10548 10550 10547 10548 10563 10546 10577 10557 10550 10550 10549 10545 10544 10545 10543 10542
10320 10340 10352 10373 10381 10384 10389 10403 10413 10426 10433 10446 10453 10468 10465 10473 10492 10496 10493 10497 10501 10506 10504 10507 10512 10510 10522 10525 10518 10517 10533 10537 10538 10536 10531 10542 10544 10527 10530 10524 10522 10519 10518 10519 10518
10296 10313 10325 10344 10356 10361 10373 10382 10397 10404 10412 10423 10434 10436 10442 10460 10463 10468 10470 10477 10478 10483 10485 10484 10490 10491 10504 10497 10494 10488 10533 10507 10518 10521 10513 10512 10528 10505 10502 10507 10503 10500 10497 10491 10488